EK60 EDDF-EGLL

Flight info

Callsign EK60
Flight time 1h 6m
Altitude 38000
Route OBOKA3W OBOKA Z29 TORNU DCT ABNED L980 LOGAN
Aircraft A388/J-SADE2E3FGHIJ3J4J5M1RWXY/LB1D1

Departure

Time 2026-05-04 21:28
Airport Frankfurt Main Airport (EDDF)

Arrival

Time 2026-05-04 22:34
Airport London Heathrow Airport (EGLL)
Time Latitude Longitude Altitude Speed Heading
2026-05-04 20:48 50.04928 8.58184 364 ft 0 kts 340°
2026-05-04 21:14 50.04911 8.58194 369 ft 4 kts 340°
2026-05-04 21:15 50.04886 8.58208 366 ft 4 kts 340°
2026-05-04 21:15 50.04864 8.58220 371 ft 4 kts 350°
2026-05-04 21:15 50.04842 8.58219 370 ft 4 kts 21°
2026-05-04 21:15 50.04831 8.58205 368 ft 4 kts 66°
2026-05-04 21:16 50.04826 8.58168 364 ft 4 kts 83°
2026-05-04 21:16 50.04821 8.58129 367 ft 3 kts 71°
2026-05-04 21:16 50.04820 8.58125 365 ft 0 kts 70°
2026-05-04 21:22 50.04820 8.58127 365 ft 1 kts 70°
2026-05-04 21:23 50.04821 8.58130 367 ft 0 kts 70°
2026-05-04 21:23 50.04829 8.58162 364 ft 10 kts 70°
2026-05-04 21:23 50.04877 8.58365 372 ft 25 kts 70°
2026-05-04 21:24 50.04918 8.58537 370 ft 0 kts 70°
2026-05-04 21:24 50.04928 8.58579 366 ft 6 kts 70°
2026-05-04 21:24 50.04937 8.58619 369 ft 7 kts 79°
2026-05-04 21:24 50.04915 8.58682 371 ft 8 kts 166°
2026-05-04 21:25 50.04849 8.58712 372 ft 12 kts 160°
2026-05-04 21:25 50.04759 8.58758 373 ft 15 kts 173°
2026-05-04 21:25 50.04646 8.58760 375 ft 17 kts 191°
2026-05-04 21:25 50.04547 8.58663 379 ft 13 kts 213°
2026-05-04 21:26 50.04485 8.58573 378 ft 12 kts 253°
2026-05-04 21:26 50.04476 8.58535 376 ft 5 kts 246°
2026-05-04 21:26 50.04462 8.58486 378 ft 0 kts 246°
2026-05-04 21:27 50.04444 8.58423 380 ft 35 kts 246°
2026-05-04 21:27 50.04280 8.57640 371 ft 109 kts 250°
2026-05-04 21:27 50.03932 8.56301 365 ft 156 kts 248°
2026-05-04 21:27 50.03514 8.54689 778 ft 163 kts 248°
2026-05-04 21:28 50.03074 8.53034 1320 ft 167 kts 249°
2026-05-04 21:28 50.02672 8.51338 1983 ft 167 kts 252°
2026-05-04 21:28 50.02130 8.49677 2523 ft 181 kts 231°
2026-05-04 21:28 50.01098 8.48383 2965 ft 203 kts 205°
2026-05-04 21:29 49.99713 8.47862 3783 ft 208 kts 186°
2026-05-04 21:29 49.98279 8.47603 4816 ft 206 kts 187°
2026-05-04 21:29 49.96883 8.47308 5827 ft 204 kts 188°
2026-05-04 21:29 49.95494 8.46866 6778 ft 204 kts 197°
2026-05-04 21:30 49.94082 8.46182 7431 ft 222 kts 197°
2026-05-04 21:30 49.92544 8.45420 8016 ft 241 kts 203°
2026-05-04 21:30 49.91155 8.43943 8897 ft 245 kts 226°
2026-05-04 21:30 49.90195 8.41749 9864 ft 249 kts 238°
2026-05-04 21:31 49.88687 8.36826 11540 ft 261 kts 257°
2026-05-04 21:31 49.88634 8.33975 12359 ft 270 kts 272°
2026-05-04 21:31 49.88822 8.30976 12779 ft 291 kts 272°
2026-05-04 21:32 49.89154 8.27748 13007 ft 317 kts 283°
2026-05-04 21:32 49.90040 8.24524 13220 ft 342 kts 298°
2026-05-04 21:32 49.91478 8.21478 13707 ft 355 kts 305°
2026-05-04 21:32 49.92984 8.18396 14329 ft 362 kts 304°
2026-05-04 21:33 49.94641 8.15398 14931 ft 369 kts 312°
2026-05-04 21:33 49.96572 8.12747 15648 ft 372 kts 317°
2026-05-04 21:33 49.98551 8.10129 16319 ft 375 kts 316°
2026-05-04 21:33 50.00537 8.07463 17008 ft 378 kts 316°
2026-05-04 21:34 50.02530 8.04780 17671 ft 381 kts 316°
2026-05-04 21:34 50.04543 8.02073 18318 ft 384 kts 316°
2026-05-04 21:34 50.06544 7.99383 18848 ft 387 kts 316°
2026-05-04 21:34 50.08593 7.96629 19396 ft 391 kts 316°
2026-05-04 21:35 50.10658 7.93851 19935 ft 393 kts 316°
2026-05-04 21:35 50.12738 7.91049 20456 ft 397 kts 316°
2026-05-04 21:35 50.14833 7.88225 20962 ft 401 kts 316°
2026-05-04 21:35 50.16944 7.85377 21545 ft 402 kts 315°
2026-05-04 21:36 50.19071 7.82504 22066 ft 405 kts 315°
2026-05-04 21:36 50.21210 7.79609 22536 ft 410 kts 316°
2026-05-04 21:36 50.23379 7.76680 23060 ft 413 kts 317°
2026-05-04 21:36 50.25687 7.74058 23561 ft 420 kts 325°
2026-05-04 21:37 50.28274 7.71888 23996 ft 426 kts 333°
2026-05-04 21:37 50.31008 7.70062 24404 ft 429 kts 333°
2026-05-04 21:37 50.33756 7.68190 24834 ft 432 kts 333°
2026-05-04 21:37 50.36517 7.66285 25271 ft 435 kts 333°
2026-05-04 21:38 50.39299 7.64363 25729 ft 439 kts 333°
2026-05-04 21:38 50.42100 7.62429 26244 ft 441 kts 333°
2026-05-04 21:38 50.44919 7.60486 26719 ft 444 kts 332°
2026-05-04 21:38 50.47724 7.58551 27192 ft 448 kts 332°
2026-05-04 21:39 50.50588 7.56574 27699 ft 452 kts 332°
2026-05-04 21:39 50.53473 7.54580 28195 ft 456 kts 332°
2026-05-04 21:39 50.56324 7.52388 28688 ft 456 kts 325°
2026-05-04 21:39 50.58992 7.49703 29191 ft 457 kts 321°
2026-05-04 21:40 50.61666 7.46938 29720 ft 461 kts 322°
2026-05-04 21:40 50.64375 7.44171 30105 ft 469 kts 322°
2026-05-04 21:40 50.67120 7.41368 30652 ft 470 kts 322°
2026-05-04 21:40 50.69827 7.38599 31199 ft 471 kts 321°
2026-05-04 21:41 50.72455 7.35549 31679 ft 467 kts 312°
2026-05-04 21:41 50.74683 7.31866 32179 ft 461 kts 302°
2026-05-04 21:41 50.76467 7.27704 32668 ft 456 kts 293°
2026-05-04 21:41 50.77911 7.23239 33119 ft 457 kts 291°
2026-05-04 21:42 50.79368 7.18753 33606 ft 460 kts 292°
2026-05-04 21:42 50.80843 7.14247 34079 ft 462 kts 292°
2026-05-04 21:42 50.82322 7.09719 34422 ft 466 kts 292°
2026-05-04 21:42 50.83812 7.05134 34787 ft 470 kts 292°
2026-05-04 21:43 50.85290 7.00570 35139 ft 473 kts 292°
2026-05-04 21:43 50.86787 6.95935 35642 ft 473 kts 292°
2026-05-04 21:43 50.88287 6.91281 35974 ft 478 kts 292°
2026-05-04 21:44 50.91271 6.82007 35969 ft 468 kts 292°
2026-05-04 21:44 50.94222 6.72781 35967 ft 471 kts 292°
2026-05-04 21:45 50.97183 6.63493 35969 ft 471 kts 292°
2026-05-04 21:45 51.00115 6.54263 35972 ft 473 kts 292°
2026-05-04 21:46 51.03067 6.44934 35970 ft 473 kts 292°
2026-05-04 21:46 51.06017 6.35580 35968 ft 473 kts 292°
2026-05-04 21:47 51.08956 6.26220 35970 ft 473 kts 292°
2026-05-04 21:47 51.11867 6.16915 35982 ft 473 kts 292°
2026-05-04 21:48 51.14404 6.07333 35954 ft 467 kts 283°
2026-05-04 21:48 51.16044 5.97345 35954 ft 466 kts 281°
2026-05-04 21:49 51.17678 5.87354 35954 ft 466 kts 281°
2026-05-04 21:49 51.19854 5.77587 35961 ft 471 kts 289°
2026-05-04 21:50 51.22392 5.68033 35958 ft 472 kts 289°
2026-05-04 21:50 51.24935 5.58339 35957 ft 474 kts 289°
2026-05-04 21:51 51.27473 5.48641 35954 ft 473 kts 289°
2026-05-04 21:51 51.30001 5.38943 35955 ft 473 kts 289°
2026-05-04 21:52 51.32505 5.29301 35956 ft 473 kts 289°
2026-05-04 21:52 51.35018 5.19576 35963 ft 474 kts 289°
2026-05-04 21:53 51.37528 5.09825 35962 ft 474 kts 289°
2026-05-04 21:53 51.40033 5.00052 35963 ft 474 kts 289°
2026-05-04 21:54 51.42510 4.90347 35965 ft 474 kts 289°
2026-05-04 21:54 51.44996 4.80563 35965 ft 474 kts 289°
2026-05-04 21:55 51.47468 4.70788 35962 ft 473 kts 289°
2026-05-04 21:55 51.49930 4.61013 35965 ft 473 kts 289°
2026-05-04 21:56 51.52369 4.51288 35966 ft 473 kts 289°
2026-05-04 21:56 51.54814 4.41495 35965 ft 473 kts 289°
2026-05-04 21:57 51.57253 4.31679 35961 ft 473 kts 289°
2026-05-04 21:57 51.59682 4.21863 35965 ft 473 kts 289°
2026-05-04 21:58 51.62103 4.12037 35965 ft 473 kts 289°
2026-05-04 21:58 51.64501 4.02261 35976 ft 473 kts 289°
2026-05-04 21:59 51.66906 3.92410 35981 ft 473 kts 289°
2026-05-04 21:59 51.69303 3.82548 35993 ft 472 kts 289°
2026-05-04 22:00 51.71689 3.72690 35991 ft 472 kts 289°
2026-05-04 22:00 51.74053 3.62879 36003 ft 472 kts 289°
2026-05-04 22:01 51.76420 3.53010 36010 ft 471 kts 289°
2026-05-04 22:01 51.78775 3.43143 36013 ft 471 kts 289°
2026-05-04 22:02 51.81118 3.33283 35852 ft 469 kts 289°
2026-05-04 22:02 51.82283 3.28364 35605 ft 467 kts 289°
2026-05-04 22:02 51.83415 3.23446 35354 ft 465 kts 285°
2026-05-04 22:02 51.84167 3.18461 35115 ft 463 kts 277°
2026-05-04 22:03 51.84478 3.13293 34875 ft 461 kts 269°
2026-05-04 22:03 51.84333 3.08129 34635 ft 459 kts 262°
2026-05-04 22:03 51.83969 3.03002 34399 ft 457 kts 262°
2026-05-04 22:03 51.83640 2.97908 34160 ft 455 kts 263°
2026-05-04 22:04 51.83318 2.92835 33909 ft 452 kts 263°
2026-05-04 22:04 51.82993 2.87783 33632 ft 452 kts 263°
2026-05-04 22:04 51.82661 2.82730 33356 ft 451 kts 262°
2026-05-04 22:04 51.82326 2.77703 33082 ft 449 kts 262°
2026-05-04 22:05 51.81989 2.72693 32825 ft 448 kts 262°
2026-05-04 22:05 51.81655 2.67775 32555 ft 446 kts 262°
2026-05-04 22:05 51.81315 2.62805 32284 ft 444 kts 262°
2026-05-04 22:05 51.80973 2.57857 32025 ft 443 kts 262°
2026-05-04 22:06 51.80631 2.52925 31763 ft 441 kts 262°
2026-05-04 22:06 51.80286 2.48002 31508 ft 440 kts 262°
2026-05-04 22:06 51.79942 2.43104 31257 ft 438 kts 262°
2026-05-04 22:06 51.79596 2.38215 31016 ft 437 kts 262°
2026-05-04 22:07 51.79250 2.33354 30761 ft 435 kts 262°
2026-05-04 22:07 51.78903 2.28504 30512 ft 433 kts 262°
2026-05-04 22:07 51.78556 2.23682 30264 ft 434 kts 262°
2026-05-04 22:07 51.78224 2.18914 30008 ft 433 kts 262°
2026-05-04 22:08 51.77939 2.14080 29719 ft 431 kts 263°
2026-05-04 22:08 51.77672 2.09267 29435 ft 429 kts 263°
2026-05-04 22:08 51.77402 2.04494 29153 ft 426 kts 263°
2026-05-04 22:08 51.77125 1.99726 28874 ft 426 kts 263°
2026-05-04 22:09 51.76844 1.94988 28510 ft 425 kts 263°
2026-05-04 22:09 51.76557 1.90227 27929 ft 425 kts 263°
2026-05-04 22:09 51.76269 1.85494 27361 ft 421 kts 262°
2026-05-04 22:09 51.75983 1.80820 26805 ft 416 kts 263°
2026-05-04 22:10 51.75697 1.76192 26253 ft 412 kts 263°
2026-05-04 22:10 51.75414 1.71623 25693 ft 408 kts 262°
2026-05-04 22:10 51.75130 1.67085 25205 ft 404 kts 263°
2026-05-04 22:10 51.74848 1.62603 24736 ft 400 kts 263°
2026-05-04 22:11 51.74564 1.58117 23958 ft 403 kts 263°
2026-05-04 22:11 51.74278 1.53650 23048 ft 408 kts 263°
2026-05-04 22:11 51.73988 1.49126 22327 ft 403 kts 263°
2026-05-04 22:11 51.73703 1.44677 21731 ft 392 kts 263°
2026-05-04 22:12 51.73426 1.40382 21424 ft 381 kts 262°
2026-05-04 22:12 51.73148 1.36132 21178 ft 381 kts 262°
2026-05-04 22:12 51.72866 1.31847 20760 ft 387 kts 262°
2026-05-04 22:12 51.72581 1.27533 20212 ft 385 kts 262°
2026-05-04 22:13 51.72299 1.23278 19719 ft 380 kts 263°
2026-05-04 22:13 51.72015 1.19020 18961 ft 384 kts 262°
2026-05-04 22:13 51.71730 1.14763 18532 ft 378 kts 263°
2026-05-04 22:13 51.71449 1.10581 18027 ft 373 kts 263°
2026-05-04 22:14 51.71168 1.06444 17481 ft 369 kts 263°
2026-05-04 22:14 51.70890 1.02358 16973 ft 364 kts 263°
2026-05-04 22:14 51.70706 0.99677 16617 ft 362 kts 263°
2026-05-04 22:14 51.70340 0.94352 16114 ft 362 kts 263°
2026-05-04 22:15 51.70061 0.90321 15769 ft 363 kts 263°
2026-05-04 22:15 51.69778 0.86255 15042 ft 368 kts 263°
2026-05-04 22:15 51.69489 0.82133 14272 ft 371 kts 263°
2026-05-04 22:15 51.69200 0.78028 13854 ft 363 kts 263°
2026-05-04 22:16 51.69014 0.75382 13683 ft 356 kts 264°
2026-05-04 22:16 51.68812 0.71436 13408 ft 351 kts 266°
2026-05-04 22:16 51.68651 0.67512 12898 ft 350 kts 266°
2026-05-04 22:16 51.68491 0.63630 12258 ft 345 kts 266°
2026-05-04 22:17 51.68333 0.59811 11769 ft 339 kts 266°
2026-05-04 22:17 51.68177 0.56086 11316 ft 327 kts 266°
2026-05-04 22:17 51.68025 0.52485 10867 ft 317 kts 266°
2026-05-04 22:17 51.67878 0.49010 10432 ft 307 kts 266°
2026-05-04 22:18 51.67735 0.45623 9994 ft 299 kts 266°
2026-05-04 22:18 51.67544 0.42330 9523 ft 291 kts 262°
2026-05-04 22:18 51.67243 0.39159 9045 ft 283 kts 261°
2026-05-04 22:18 51.66933 0.36063 8582 ft 276 kts 261°
2026-05-04 22:19 51.66616 0.33047 8171 ft 268 kts 260°
2026-05-04 22:19 51.66294 0.30187 8049 ft 251 kts 260°
2026-05-04 22:19 51.65990 0.27519 8045 ft 241 kts 260°
2026-05-04 22:19 51.65689 0.24867 8049 ft 242 kts 260°
2026-05-04 22:20 51.65387 0.22187 8053 ft 243 kts 261°
2026-05-04 22:20 51.65087 0.19521 8040 ft 242 kts 261°
2026-05-04 22:20 51.64829 0.16859 8055 ft 240 kts 265°
2026-05-04 22:20 51.64683 0.14178 8058 ft 241 kts 266°
2026-05-04 22:21 51.64551 0.11485 8042 ft 242 kts 266°
2026-05-04 22:21 51.64416 0.08797 8049 ft 242 kts 266°
2026-05-04 22:21 51.64283 0.06099 8056 ft 242 kts 266°
2026-05-04 22:21 51.64154 0.03432 8050 ft 243 kts 266°
2026-05-04 22:22 51.64019 0.00734 8051 ft 241 kts 266°
2026-05-04 22:22 51.63885 -0.01952 8025 ft 242 kts 266°
2026-05-04 22:22 51.63764 -0.04658 7868 ft 242 kts 266°
2026-05-04 22:22 51.63649 -0.07222 7657 ft 234 kts 266°
2026-05-04 22:23 51.63530 -0.09830 7224 ft 234 kts 266°
2026-05-04 22:23 51.63408 -0.12442 7072 ft 235 kts 266°
2026-05-04 22:23 51.63283 -0.15082 7045 ft 236 kts 266°
2026-05-04 22:23 51.63157 -0.17710 7054 ft 237 kts 265°
2026-05-04 22:24 51.63031 -0.20378 7043 ft 240 kts 266°
2026-05-04 22:24 51.62905 -0.23036 7052 ft 236 kts 266°
2026-05-04 22:24 51.62780 -0.25669 7057 ft 236 kts 266°
2026-05-04 22:24 51.62664 -0.28075 7059 ft 235 kts 266°
2026-05-04 22:25 51.62544 -0.30582 7045 ft 236 kts 266°
2026-05-04 22:25 51.62417 -0.33213 7045 ft 236 kts 266°
2026-05-04 22:25 51.62291 -0.35841 7044 ft 234 kts 266°
2026-05-04 22:25 51.62164 -0.38451 7045 ft 234 kts 266°
2026-05-04 22:26 51.62039 -0.41077 7040 ft 237 kts 266°
2026-05-04 22:26 51.61912 -0.43711 7043 ft 235 kts 265°
2026-05-04 22:26 51.61784 -0.46343 7040 ft 236 kts 265°
2026-05-04 22:26 51.61656 -0.48986 7044 ft 238 kts 265°
2026-05-04 22:27 51.61529 -0.51634 7008 ft 236 kts 266°
2026-05-04 22:27 51.61400 -0.54273 6902 ft 235 kts 266°
2026-05-04 22:27 51.61271 -0.56866 6667 ft 233 kts 265°
2026-05-04 22:27 51.61141 -0.59482 6339 ft 235 kts 266°
2026-05-04 22:28 51.61003 -0.62062 6141 ft 230 kts 265°
2026-05-04 22:28 51.60864 -0.64652 5770 ft 234 kts 266°
2026-05-04 22:28 51.60717 -0.67233 5565 ft 230 kts 265°
2026-05-04 22:28 51.60552 -0.69818 5198 ft 234 kts 259°
2026-05-04 22:29 51.59837 -0.72082 5020 ft 231 kts 226°
2026-05-04 22:29 51.58485 -0.73364 4958 ft 225 kts 193°
2026-05-04 22:29 51.56953 -0.73515 4889 ft 217 kts 180°
2026-05-04 22:29 51.55464 -0.73537 4759 ft 212 kts 180°
2026-05-04 22:30 51.54002 -0.73576 4591 ft 209 kts 181°
2026-05-04 22:30 51.52565 -0.73618 4426 ft 206 kts 180°
2026-05-04 22:30 51.51133 -0.73669 4196 ft 205 kts 180°
2026-05-04 22:30 51.49728 -0.73600 3802 ft 198 kts 164°
2026-05-04 22:31 51.48570 -0.72523 3219 ft 191 kts 134°
2026-05-04 22:31 51.47637 -0.70996 3004 ft 192 kts 120°
2026-05-04 22:31 51.47269 -0.69007 3001 ft 189 kts 88°
2026-05-04 22:31 51.47452 -0.66913 3001 ft 190 kts 79°
2026-05-04 22:32 51.47619 -0.64859 3007 ft 180 kts 84°
2026-05-04 22:32 51.47682 -0.62891 2956 ft 173 kts 86°
2026-05-04 22:32 51.47702 -0.60992 2601 ft 170 kts 88°
2026-05-04 22:32 51.47710 -0.59107 2136 ft 165 kts 87°
2026-05-04 22:33 51.47715 -0.57350 1662 ft 154 kts 87°
2026-05-04 22:33 51.47722 -0.55665 1188 ft 149 kts 87°
2026-05-04 22:33 51.47727 -0.54014 846 ft 144 kts 86°
2026-05-04 22:33 51.47733 -0.52464 607 ft 135 kts 86°
2026-05-04 22:34 51.47737 -0.50962 425 ft 134 kts 87°
2026-05-04 22:34 51.47747 -0.49457 250 ft 137 kts 88°
2026-05-04 22:34 51.47760 -0.47942 93 ft 130 kts 88°
2026-05-04 22:34 51.47763 -0.46911 93 ft 46 kts 90°
2026-05-04 22:35 51.47730 -0.46328 93 ft 35 kts 81°
2026-05-04 22:35 51.47757 -0.46028 94 ft 36 kts 105°
2026-05-04 22:35 51.47757 -0.45627 93 ft 37 kts 95°
2026-05-04 22:35 51.47704 -0.45478 95 ft 16 kts 162°
2026-05-04 22:36 51.47618 -0.45465 91 ft 10 kts 182°
2026-05-04 22:36 51.47610 -0.45466 91 ft 0 kts 182°
2026-05-04 22:37 51.47596 -0.45466 91 ft 0 kts 181°
2026-05-04 22:37 51.47579 -0.45466 91 ft 0 kts 175°
2026-05-04 22:37 51.47520 -0.45554 95 ft 9 kts 268°
2026-05-04 22:38 51.47515 -0.45815 93 ft 27 kts 274°
2026-05-04 22:38 51.47520 -0.46026 94 ft 16 kts 268°
2026-05-04 22:38 51.47519 -0.46097 94 ft 5 kts 268°
2026-05-04 22:38 51.47517 -0.46210 93 ft 15 kts 269°
2026-05-04 22:39 51.47515 -0.46427 91 ft 22 kts 269°
2026-05-04 22:39 51.47514 -0.46635 93 ft 19 kts 268°
2026-05-04 22:39 51.47450 -0.46740 95 ft 1 kts 178°
2026-05-04 22:39 51.47429 -0.46739 95 ft 7 kts 178°
2026-05-04 22:40 51.47359 -0.46732 93 ft 13 kts 170°
2026-05-04 22:40 51.47325 -0.46727 91 ft 3 kts 185°
2026-05-04 22:40 51.47278 -0.46730 91 ft 11 kts 181°
2026-05-04 22:40 51.47183 -0.46727 91 ft 17 kts 178°
2026-05-04 22:41 51.47044 -0.46702 95 ft 23 kts 156°
2026-05-04 22:41 51.46931 -0.46587 93 ft 9 kts 147°
2026-05-04 22:41 51.46849 -0.46503 95 ft 18 kts 147°
2026-05-04 22:41 51.46760 -0.46384 94 ft 15 kts 116°
2026-05-04 22:42 51.46748 -0.46311 95 ft 4 kts 96°
2026-05-04 22:42 51.46747 -0.46291 96 ft 0 kts 93°
2026-05-04 22:42 51.46746 -0.46290 96 ft 1 kts 93°
2026-05-04 22:42 51.46750 -0.46154 93 ft 23 kts 87°
2026-05-04 22:43 51.46746 -0.45948 95 ft 19 kts 89°
2026-05-04 22:43 51.46746 -0.45899 95 ft 0 kts 89°
2026-05-04 22:43 51.46750 -0.45849 95 ft 9 kts 81°
2026-05-04 22:43 51.46768 -0.45783 96 ft 1 kts 48°
2026-05-04 22:44 51.46771 -0.45778 96 ft 0 kts 46°
2026-05-04 22:44 51.46779 -0.45766 95 ft 0 kts 28°
2026-05-04 22:44 51.46799 -0.45758 93 ft 2 kts 355°
2026-05-04 22:44 51.46823 -0.45772 96 ft 0 kts 323°
2026-05-04 22:45 51.46822 -0.45832 96 ft 0 kts 360°